Погода в Ширинье

Россия / Ярославская область     57°33′12″N   39°20′09″E
темп.,
°C
ветер,
м/с
пор.,
м/с
влажн.,
%
обл.,
%
осадки,
мм/ч
давл.,
гПа
погр.,
м
19 апреля, пн
пн1900:00+5всв41186100 0.0 1027560
03:00+5всв4985100 0.0 1027684
06:00+3всв51079100 0.0 1027532
09:00+4всв5965100 0.0 1028647
12:00+8в684729 0.0 10281271
15:00+9в684374 0.0 10271679
18:00+8в58455 0.0 10271595
21:00+4в511531 0.0 1028593
20 апреля, вт
вт2000:00+2в5126396 0.0 1028528
03:00+1в4126911 0.0 1028431
06:000в5126932 0.0 1027455
09:00+4в61055100 0.0 1027679
12:00+8вюв71047100 0.0 10251328
15:00+9вюв61048100 0.0 10231476
18:00+9вюв61152100 0.0 10211635
21:00+7в6115295 0.0 10201349
21 апреля, ср
ср2100:00+5в61352100 0.0 1017856
03:00+4в71457100 0.1 1013874
06:000в71797100 3.6 1009874
09:00+1в71694100 6.6 1006897
12:00+2в71797100 1.4 10021152
15:00+3ююв71397100 2.0 10011109
18:00+2ююз71397100 0.1 1004844
21:00+2ююз61197100 0.3 1008848
22 апреля, чт
чт2200:00+3ююз51197100 0.2 1010984
03:00+3ююз4109482 0.3 1011595
06:00+2ю4119612 0.0 1012344
09:00+6ю51083100 0.0 1013616
12:00+9ююз696976 0.1 10131194
15:00+10юз61075100 0.7 10141369
18:00+9юз598112 0.8 1015816
21:00+6ю299387 0.8 1016229
23 апреля, пт
пт2300:00+5ю39940 0.0 1017183
03:00+4ю26955 0.0 1017104
06:00+5ююв39955 0.0 1017196
09:00+10ю48794 0.0 1017446
12:00+15ю58595 0.0 10161242
15:00+15ююз69595 0.7 10141588
18:00+14ю5116369 0.1 1014619
21:00+10ююв5147874 0.1 1013391